Regional Weather Roundup
Issued by NWS Charleston, SC

Current Version | Previous Version | Graphics & Text | Print | Product List | Glossary On
Versions: 1 2 3 4 5 6 7 8 9 10 11 12 13 14 15 16 17 18 19 20 21 22 23 24 25 26 27 28 29 30 31 32 33 34 35 36 37 38 39 40 41 42 43 44 45 46 47 48 49 50
000
ASUS42 KCHS 180912
RWRCHS

REGIONAL WEATHER ROUNDUP
NATIONAL WEATHER SERVICE CHARLESTON SC
500 AM EDT FRI AUG 18 2017

NOTE: "FAIR" INDICATES FEW OR NO CLOUDS BELOW 12,000 FEET WITH NO
SIGNIFICANT WEATHER AND/OR OBSTRUCTIONS TO VISIBILITY.

NOT ALL STATIONS ARE QUALITY CONTROLLED. USE DATA WITH CAUTION...
ESPECIALLY DEWPOINT OBSERVATIONS.

SCZ027-030-031-034>040-042>050-181000-
...SOUTHEAST SOUTH CAROLINA...

CITY           SKY/WX    TMP DP  RH WIND       PRES   REMARKS
N CHARLESTON   PTCLDY    81  78  91 SW7       29.95S
WATERFRONT PRK   N/A     84  80  88 SW5       29.79F HX  97
JOHNS ISLAND   FAIR      82  79  89 CALM      29.96S HX  93
PINOPOLIS        N/A     81  79  94 SW7       29.88S
MONCKS CORNER  FAIR      77  75  94 SW6       29.95S
SUMMERVILLE    FAIR      77  77 100 CALM      29.96S
BEAUFORT MCAS  MOCLDY    81  77  88 SW7       29.96S
BEAUFORT ARPT  FAIR      81  75  83 SW6       29.95F
HILTON HEAD IS PTCLDY    82  77  83 SW7       29.96F HX  91
WALTERBORO     PTSUNNY   77  75  94 CALM      29.97R
ALLENDALE      NOT AVBL

...SOUTHERN MIDLANDS AND PEE DEE...

CITY           SKY/WX    TMP DP  RH WIND       PRES   REMARKS
GEORGETOWN     FAIR      79  79 100 SW6       29.95S
KINGSTREE      FAIR      77  75  94 CALM      29.94S
ORANGEBURG     CLEAR     77  75  93 S3        29.95S
BARNWELL       FAIR      79  77  94 SW3       29.96S
AIKEN          FAIR      73  73 100 SW3       30.00S
MANNING        FAIR      79  73  83 W13       29.94S
COLUMBIA       CLEAR     78  74  87 W5        29.93S
SUMTER         CLEAR     77  75  91 S5        29.92S
FLORENCE       CLEAR     78  78 100 SW6       29.93S
MYRTLE BEACH   NOT AVBL
N MYRTLE BEACH CLEAR     82  80  94 SW9       29.93S HX  94

$$

GAZ063-065-086>088-099>101-113>116-118-119-134>141-150-181000-
...SOUTHEAST GEORGIA...

CITY           SKY/WX    TMP DP  RH WIND       PRES   REMARKS
SAVANNAH ARPT  CLEAR     78  75  90 W5        29.97S
HUNTER AAF     CLEAR     79  75  88 W7        29.94F
FORT STEWART   CLEAR     77  74  90 SW3       29.95S
STATESBORO     CLEAR     79  75  88 CALM      29.97R
SYLVANIA       MOSUNNY   77  77 100 CALM      29.98R
CLAXTON        FAIR      79  76  92 CALM      29.97S

...CSRA...CENTRAL AND FAR SOUTHEAST GEORGIA...

CITY           SKY/WX    TMP DP  RH WIND       PRES   REMARKS
THOMSON        CLEAR     75  73  94 NW3       30.02S
AUGUSTA-BUSH   CLEAR     80  75  84 SW3       29.95S
AUGUSTA-DANIEL CLEAR     81  72  74 VRB5      29.97S
SWAINSBORO     FAIR      75  75 100 CALM      29.99S
VIDALIA        CLEAR     77  75  94 CALM      29.99R
EASTMAN        FAIR      76  76 100 CALM      30.01S
HAZLEHURST     FAIR      78  75  91 CALM      29.98R
ALMA           CLEAR     77  74  90 CALM      29.98S
WAYCROSS       CLEAR     77  74  90 CALM      29.98S
JESUP          FAIR      75  72  88 CALM      29.98S
BAXLEY         FAIR      73  73 100 CALM      29.98S
BRUNSWICK      PTCLDY    77  73  88 S3        29.98S
SAINT SIMONS   PTCLDY    80  77  90 SW7       29.96F

$$

SCZ027-028-034-036>038-045-046-048>050-GAZ119-141-181000-
...LAKE AND SUPPLEMENTAL COASTAL OBSERVATIONS...

STATION/POSITION TIME  TEMP    WIND        PRES    WAVE   SWELL
                       AIR SEA DIR/SP/G            HT/PER HT/PER/DIR
                 (UTC) (F)     (DEG/KT/KT) (MB)    (FT/S) (FT/S/D)
WINYAH BAY       0745   82     230/  6     1014.0
LAKE MURRAY      0820   82     240/  6/  9 1012.9
ACE BASIN NERRS  0745   80        CALM     1014.0
FORT PULASKI     0842   81 86  260/  5/  7 1014.9F
SAPELO ISLAND    0800   81     210/  4     1015.0

$$

ANZ835-935-AMZ111-154-330-350-352-354-370-450-454-472-181000-
...C-MAN AND BUOY OBSERVATIONS...

STATION/POSITION TIME  TEMP    WIND        PRES    WAVE   SWELL
                       AIR SEA DIR/SP/G            HT/PER HT/PER/DIR
                 (UTC) (F)     (DEG/KT/KT) (MB)    (FT/S) (FT/S/D)
BUOY 41004       0850   84 84  220/ 12/ 16 1013.7F   2/ 4   2/130/ 6
BUOY 41008       0850   83 85  230/ 12/ 14 1014.1S   2/ 3
FOLLY BEACH CMAN 0800   85     220/ 14/ 16 1014.9S
CAPERS NEARSHORE 0808   83 85  230/ 14/ 19 1013.8F
FRIPP NEARSHORE  0808   85     230/ 14/ 17 1013.9F


STATION/POSITION TIME  TEMP    WIND        PRES    WAVE   SWELL
                       AIR SEA DIR/SP/G            HT/PER HT/PER/DIR
                 (UTC) (F)     (DEG/KT/KT) (MB)    (FT/S) (FT/S/D)
5E ST. MARYS GA  0830      84                N/A     2/ 8
FRYING PAN BUOY  0850   85 84  220/ 12/ 16 1014.0R   2/ 8   2/ 90/ 8
BUOY 41025       0850   84 85  190/ 17/ 19 1013.9S   2/ 3   2/120/ 8
CAPE LOOKOUT NC  0800   83     200/  9/ 11 1013.5F
BUOY 41002       0850   83 84  230/  8/ 10 1015.5F   2/ 8   2/ 80/ 8
BUOY 41010       0850   85 85  180/ 12/ 14 1015.6R   2/ 7   2/120/ 7
ST AUGUSTINE FL  0900   77 81  250/  6/  7 1015.3F


$$




USA.gov is the U.S. government's official web portal to all federal, state and local government web resources and services.